If you wish to contribute or participate in the discussions about articles you are invited to join SKYbrary as a registered user

 Actions

Taraz Airport

From SKYbrary Wiki

UADD
Airport
ICAO: UADD – IATA: DMB
Summary
Name Taraz Airport
Region Asia and Pacific
Territory Kazakhstan KZ.gif
Location Taraz, Jambyl Province
Serving Taraz
Elevation 665.683 m
2,184 ft
2,184 ft665.683 m
Coordinates 42° 51' 13.00" N, 71° 18' 13.00" E
Runways
Designator Length Width Surface ROPS
13/31 2900 m9,514.436 ft
45 m147.638 ft
ASP /


METAR
Observation UADD 280230Z 21002MPS 9999 NSC M02/M09 Q1023 R13/0///65 NOSIG RMK QFE710/0947
Station TARAZ
Date/Time 28 October 2020 02:30:00
Wind direction 210°
Wind speed kts
Lowest cloud amount n/a
Temperature
Dew point
Humidity 58%
QNH 1023 hPa
Weather condition n/a

Description

Taraz Airport, also known as Jambyl Airport is an airport serving Taraz (formerly Jambyl and Aulie-Ata), a city in the Jambyl Province of Kazakhstan.